GFSFLT2_prec_cloud_111.txt.gz
Cloud_Cover
48 100 100 33 9 3 0 5 5 17 98 81 48 65 30 5 40 30 86 48 15 5 5 99 81 70 60 5 5 5 34 54
54 100 100 95 62 22 5 5 100 75 5 74 48 19 65 100 41 77 32 82 98 11 5 27 100 85 76 5 5 14 30 46
99 100 100 99 49 30 36 14 4 8 10 25 98 43 21 57 72 100 100 100 40 5 7 79 100 10 5 5 6 26 42 52
100 100 100 100 74 78 58 58 26 9 5 20 32 61 100 100 100 100 100 97 98 15 22 100 100 40 8 34 32 35 33 38
57 100 100 100 100 100 100 100 100 100 97 84 71 89 52 47 96 100 100 62 70 86 96 100 100 91 33 56 40 23 15 5
0 9 84 100 100 100 100 100 100 100 100 100 99 100 100 100 36 60 60 96 100 78 100 100 100 50 34 45 32 48 41 45
15 5 8 60 100 100 100 100 100 100 100 100 100 100 100 100 79 46 55 62 50 100 100 100 100 50 52 36 23 29 48 39
83 5 5 0 46 67 100 100 100 100 100 83 100 100 100 100 100 68 67 59 100 100 100 100 100 71 50 46 31 32 19 20
100 6 0 0 0 13 100 100 100 100 100 86 95 100 100 100 100 100 79 95 100 100 100 100 100 63 57 59 51 43 20 30
100 64 2 14 12 77 31 48 100 100 100 100 100 52 61 22 100 100 100 100 100 100 100 100 80 64 70 94 76 61 36 48
100 96 16 9 5 28 91 9 23 100 100 100 100 100 26 74 100 100 100 100 100 100 100 100 74 81 74 54 53 52 80 99
53 100 100 71 4 19 74 68 36 4 94 100 100 93 100 100 100 100 100 100 100 100 100 100 98 89 58 72 75 46 96 44
100 100 99 53 5 33 95 100 100 51 18 100 100 94 100 100 100 100 100 100 100 100 100 97 100 100 100 100 77 75 100 99
100 100 100 15 0 0 0 0 98 64 44 56 100 100 100 100 100 100 100 100 100 100 100 100 100 83 100 100 100 100 95 73
100 87 100 19 3 0 0 21 58 94 100 100 100 100 100 100 100 100 100 100 100 100 100 100 100 100 100 100 97 66 72 100
100 100 100 100 95 4 0 0 34 86 97 100 100 100 100 100 100 100 100 100 100 100 100 100 100 100 100 100 99 26 70 100
100 91 31 100 65 3 0 0 0 0 39 82 100 100 100 100 100 100 100 100 100 100 100 100 100 78 84 100 100 62 42 100
100 100 100 56 52 0 0 0 0 0 42 59 100 100 100 100 100 100 100 100 100 100 100 100 100 92 100 100 100 100 100 100
100 100 100 100 99 1 0 4 26 17 52 35 100 100 100 100 100 100 100 100 100 100 100 100 100 100 100 100 90 100 100 100
100 100 100 100 100 82 10 0 100 82 70 68 76 100 100 100 100 100 100 100 100 100 100 100 100 100 100 98 100 100 98 100

GFSFLT2_prec_cloud_114.txt.gz
Cloud_Cover
71 83 31 44 0 0 0 0 0 0 0 0 0 5 13 51 100 100 21 79 73 100 57 24 10 7 5 84 27 47 42 58
81 100 50 0 1 13 0 0 0 0 0 0 7 9 2 8 9 53 94 100 100 98 46 63 100 24 39 100 100 32 36 41
100 100 100 59 25 12 53 25 1 9 15 10 68 1 2 7 5 5 5 21 88 100 100 100 100 16 54 100 100 59 24 29
100 100 100 100 5 30 6 0 0 0 0 0 0 21 92 52 22 99 100 100 100 100 100 100 96 8 95 100 100 82 31 17
100 77 100 100 6 85 13 12 1 6 10 8 2 42 100 35 90 84 100 100 100 100 100 100 82 50 100 100 100 84 69 36
100 100 100 100 100 100 100 30 85 72 41 14 3 26 44 97 50 78 79 16 94 100 100 100 100 99 100 100 100 98 44 31
100 100 100 100 100 100 100 28 3 43 90 99 18 87 66 28 9 45 48 92 93 100 100 100 100 100 100 100 99 88 46 54
100 100 100 100 100 100 78 100 8 43 98 98 98 20 17 100 7 24 26 92 78 99 100 100 98 100 100 100 100 78 50 40
79 100 100 100 100 100 100 100 82 2 99 100 100 100 67 100 97 6 28 77 92 97 100 100 100 100 100 100 93 82 62 73
6 5 81 100 100 100 100 100 96 5 19 0 44 98 100 97 100 93 24 90 100 94 100 100 100 100 100 100 100 99 100 98
66 26 28 74 100 100 100 100 99 5 5 1 0 51 100 100 99 100 100 96 100 100 100 100 100 100 100 100 76 94 100 93
100 100 94 87 100 100 100 100 88 10 6 3 1 2 96 100 100 97 100 100 100 94 100 100 100 100 100 91 100 100 90 32
100 63 6 16 98 95 100 100 100 84 6 4 0 0 9 100 100 100 97 100 100 100 100 100 100 100 100 100 90 59 50 33
86 87 100 11 3 100 100 100 100 100 70 5 22 38 2 5 100 100 100 100 100 100 100 100 100 100 94 100 96 75 52 68
100 93 100 100 59 4 63 100 100 100 91 62 96 18 0 0 71 100 100 100 100 100 100 100 100 100 100 98 69 49 23 99
100 100 100 91 100 100 95 96 100 100 100 100 22 15 44 52 64 100 100 100 100 100 100 100 100 100 95 99 38 81 31 70
100 100 100 100 93 16 31 63 98 100 100 100 100 75 84 100 99 100 100 100 100 100 100 100 100 100 100 100 82 100 100 17
53 84 94 91 90 80 66 39 8 33 100 100 100 54 79 100 100 100 100 100 100 100 100 100 100 100 100 93 59 93 87 71
57 65 75 69 100 100 98 47 100 8 16 100 100 73 100 100 100 100 100 100 100 100 100 100 100 100 100 94 84 48 40 55
100 99 98 79 100 100 100 86 12 4 2 10 100 35 100 100 100 100 100 100 100 100 100 100 100 100 100 100 96 35 25 49

GFSFLT2_prec_cloud_117.txt.gz
Cloud_Cover
35 29 4 44 0 0 0 0 0 0 0 0 0 0 0 0 0 0 0 62 65 100 100 42 19 10 57 25 88 6 57 98
28 59 29 0 1 7 0 0 0 0 0 0 0 6 0 8 3 16 3 1 5 93 100 79 87 35 5 82 100 13 85 95
100 71 92 28 3 5 53 26 1 9 10 8 68 0 1 8 1 2 5 5 5 5 5 9 36 33 100 100 100 8 100 100
89 100 100 78 32 39 19 3 10 0 0 0 0 0 54 23 18 3 70 5 56 100 100 95 98 100 100 100 88 63 100 100
99 100 100 100 98 90 98 100 55 28 6 4 0 3 21 31 42 5 11 28 96 100 100 100 100 86 100 100 26 94 100 100
64 100 100 100 95 100 100 100 100 100 6 6 3 5 20 44 63 98 30 26 73 100 74 100 100 100 100 100 100 99 100 100
95 88 100 100 100 100 100 100 100 100 100 28 5 5 5 20 23 87 75 69 48 85 99 100 100 100 100 100 98 100 100 100
100 33 51 100 96 100 100 100 100 72 95 79 4 5 6 5 28 96 96 100 100 97 44 100 100 100 100 100 100 100 100 100
31 60 5 6 73 100 100 100 100 89 78 100 100 20 33 7 21 80 83 54 66 98 73 100 100 100 100 100 100 100 100 100
100 51 12 25 5 5 56 100 100 100 100 100 100 88 16 21 37 41 100 54 72 97 96 70 79 100 100 100 98 100 100 100
14 59 36 5 5 3 58 100 100 100 100 100 100 100 100 16 29 74 98 51 59 99 100 100 69 76 69 100 100 100 100 98
2 5 5 13 80 99 100 69 77 62 99 100 100 100 100 93 5 40 69 97 65 100 100 100 100 100 74 100 100 100 100 100
5 5 0 4 5 36 100 100 100 100 100 100 100 100 100 100 72 4 5 76 48 70 92 89 100 100 100 100 100 100 100 99
5 94 48 35 23 61 81 69 38 12 24 89 100 100 100 100 89 46 13 30 99 100 92 100 100 100 100 100 100 100 87 69
4 0 29 91 46 6 16 81 67 5 33 30 100 100 100 100 100 22 0 17 90 100 100 100 100 100 100 100 100 100 61 41
35 47 18 86 100 100 85 4 4 5 6 100 36 100 100 100 100 54 4 27 28 99 100 100 100 100 100 100 100 100 100 78
74 92 88 100 100 100 81 94 95 100 85 84 100 18 100 100 100 93 57 61 31 79 100 100 100 100 100 100 100 100 100 59
100 100 99 81 94 97 100 84 52 19 9 100 100 95 68 100 100 100 43 76 83 57 100 88 100 100 100 100 100 100 100 67
100 100 100 98 89 100 100 100 90 97 100 45 100 100 100 100 100 100 100 97 100 96 92 93 100 100 100 100 100 100 100 87
100 100 100 100 100 100 96 100 100 77 31 72 100 100 100 100 100 100 100 98 100 100 100 100 100 100 100 100 100 100 100 100

GFSFLT2_prec_cloud_123.txt.gz
Cloud_Cover
40 24 66 7 100 95 7 0 0 0 0 0 0 0 0 0 0 1 1 0 0 0 0 0 0 0 5 5 31 79 14 7
100 97 100 100 100 100 18 6 1 0 0 0 1 4 31 5 1 82 28 1 0 0 0 2 2 4 5 5 5 68 5 2
100 100 100 100 100 100 7 7 10 3 2 2 96 24 32 5 99 100 79 3 1 0 0 0 0 4 54 84 87 100 50 25
98 100 100 98 100 100 89 25 83 100 66 90 64 21 14 5 58 100 29 99 7 0 0 0 6 35 29 12 54 99 100 100
100 72 67 99 100 100 21 15 43 60 54 89 99 73 89 78 53 5 88 100 27 25 25 42 30 6 25 21 27 59 100 29
95 100 100 100 91 95 52 44 99 87 100 57 95 100 91 99 99 18 28 38 61 60 70 42 12 0 2 34 45 6 50 66
66 100 100 100 60 64 100 100 100 100 100 100 88 100 100 100 98 20 47 34 25 53 46 21 0 0 0 6 92 38 87 99
100 100 100 100 95 82 100 100 100 100 100 100 100 100 100 100 100 6 100 4 24 100 45 5 2 5 7 1 74 92 6 98
100 100 100 100 100 23 6 17 53 100 100 100 100 100 100 80 100 30 5 5 8 100 99 39 23 0 80 5 15 14 30 14
100 100 100 100 100 94 95 94 58 30 93 96 100 100 100 100 100 43 21 5 0 19 97 100 72 2 5 5 100 80 28 82
95 100 100 100 100 100 100 52 5 30 65 17 96 100 100 100 100 54 77 65 13 0 74 99 94 100 6 62 21 42 5 53
5 12 100 100 100 100 100 100 100 79 27 29 78 96 100 100 100 100 100 99 5 4 0 9 26 100 90 7 66 26 23 99
0 0 0 25 100 100 100 100 100 100 30 30 10 8 76 100 100 96 100 100 47 4 0 0 6 87 35 100 12 8 24 53
0 0 0 0 1 87 100 100 100 100 100 73 50 3 14 48 92 100 100 100 100 9 5 4 5 3 51 66 98 36 63 42
0 0 0 5 5 12 19 100 100 100 100 100 92 94 14 5 82 100 100 100 100 30 11 24 5 43 69 5 94 26 19 25
5 1 0 0 5 82 35 4 45 100 100 100 90 87 54 6 9 100 100 100 100 98 8 15 63 100 100 99 99 15 0 20
100 87 7 5 5 5 30 18 2 31 12 58 85 11 96 43 84 12 98 100 100 100 76 100 100 100 100 100 77 100 22 5
65 60 74 61 5 5 5 6 7 20 61 18 5 3 16 84 99 92 10 70 100 100 100 100 100 100 100 100 100 100 100 5
42 61 56 54 15 5 5 33 86 74 74 95 75 10 6 45 100 99 14 5 5 66 100 100 100 100 100 100 100 100 100 13
78 97 100 95 41 55 49 74 100 100 100 100 96 76 67 34 58 100 100 5 7 2 89 100 100 100 100 100 100 100 100 98